Terug naar catalogus

CZ-6A DEB

ActiefPO
NORAD 54275·DEBRIS·🇨🇳 China

Gelanceerd Nov 11, 2022 vanaf Taiyuan Satellite Launch Center

Loading…

Volgende Passages (komende 24 uur)

TLE

VersSource: Space-Track

Epoch: Sep 14, 2026, 05:53 UTC

1 54275U 22151S   26257.24514792  .00006330  00000-0  94074-3 0  9999
2 54275  98.8210   6.5692 0073698   2.7593 357.4004 14.73540551203317

Volg CZ-6A DEB in realtime met AllMySat

Download on the App Store